[[{"header":{"parameterUnit":"m.s-1","parameterCategory":1,"la1":30.2991,"la2":30.254,"lo1":-89.0895,"lo2":-89.0444,"dy":0.0017,"dx":0.0017,"nx":28,"ny":28,"refTime":"2023-08-31T03:00:00:Z","depth":0,"parameterNumber":2,"parameterNumberName":"U-component_of_WINDS"},"data":[0,0,0,0,0,0,0,0,0,0,0,0,0,0,0,0,0,0,0,0,0,0,0,0,0,0,0,0,0,0,0,0,0,0,0,0,0,0,0,0,0,0,0,0,0,0,0,0,0,0,0,0,0,0,0,0,0,0,-1.2291,-1.2292,0,-1.2327,-1.2327,-1.2328,-1.2254,-1.2252,-1.2249,-1.2247,-1.2286,-1.2289,-1.2292,0,0,0,0,0,0,0,0,0,0,0,0,0,-1.2161,-1.2164,-1.2291,-1.2292,-1.2292,-1.2327,-1.2327,-1.2328,-1.2254,-1.2251,-1.2249,-1.2246,-1.2285,-1.2289,-1.2293,0,0,0,0,0,0,0,0,0,0,0,0,0,-1.2209,-1.2164,-1.2291,-1.226,-1.2257,-1.2327,-1.2327,-1.2328,-1.2255,-1.2251,-1.2248,-1.2244,-1.2284,-1.2288,-1.2293,-1.2396,0,0,-1.2308,-1.231,0,0,0,0,0,0,0,0,-1.2207,-1.2214,-1.2264,-1.2262,-1.2259,-1.2282,-1.2296,-1.2351,-1.2256,-1.2256,-1.2247,-1.2243,-1.2288,-1.2292,-1.2307,-1.2398,-1.24,-1.2309,-1.2312,-1.2314,-1.2315,0,0,0,0,0,0,0,-1.2203,-1.2212,-1.2305,-1.2265,-1.2262,-1.2244,-1.2247,-1.2306,-1.2292,-1.2256,-1.225,-1.2255,-1.2286,-1.2302,-1.2307,-1.24,-1.2309,-1.2313,-1.2316,-1.2318,-1.2578,-1.2582,0,0,0,0,0,0,-1.2204,-1.221,-1.2304,-1.2306,-1.2223,-1.2249,-1.2253,-1.2279,-1.2291,-1.2289,-1.2258,-1.2252,-1.2296,-1.2302,-1.2308,-1.2431,-1.2314,-1.2318,-1.2321,-1.2574,-1.2579,-1.2583,0,0,0,0,0,0,-1.2201,-1.2213,-1.2303,-1.2257,-1.2267,-1.2255,-1.2285,-1.2281,-1.2298,-1.2293,-1.229,-1.2278,-1.2293,-1.2301,-1.2375,-1.2431,-1.2321,-1.2325,-1.2569,-1.2576,-1.2581,-1.2676,0,0,0,0,0,0,-1.2198,-1.2212,-1.2251,-1.2258,-1.227,-1.2369,-1.2289,-1.2284,-1.2306,-1.2298,-1.2311,-1.2309,-1.2291,-1.2368,-1.238,-1.2436,-1.2329,-1.2564,-1.2572,-1.2579,-1.2668,-1.2685,-1.2699,0,0,0,0,0,-1.2193,-1.2277,-1.2253,-1.2265,-1.2318,-1.2372,-1.2379,-1.2355,-1.2311,-1.235,-1.2347,-1.2309,-1.2422,-1.2376,-1.2389,-1.2447,-1.2561,-1.257,-1.2579,-1.2661,-1.2681,-1.2698,0,0,0,0,0,0,-1.2278,-1.2277,-1.2251,-1.2339,-1.2356,-1.2359,-1.2408,-1.2377,-1.2408,-1.2399,-1.2369,-1.2372,-1.2452,-1.2456,-1.2405,-1.2548,-1.2484,-1.2496,-1.2543,-1.2562,-1.2577,-1.2576,-1.2333,0,0,0,0,0,-1.2307,-1.235,-1.2347,-1.2425,-1.2435,-1.242,-1.2443,-1.2423,-1.244,-1.2447,-1.2449,-1.2467,-1.2507,-1.2534,-1.257,-1.2667,-1.267,-1.2713,-1.2729,-1.2741,-1.2753,-1.2806,-1.2826,-1.2612,-1.2612,-1.2612,0,0,-1.2367,-1.2372,-1.2401,-1.2442,-1.2453,-1.25,-1.2427,-1.2479,-1.2514,-1.2455,-1.2525,-1.2527,-1.2545,-1.2631,-1.2669,-1.2637,-1.2812,-1.2753,-1.2763,-1.2768,-1.2817,-1.2837,-1.2855,-1.2618,-1.2617,-1.2616,0,0,-1.2501,-1.2508,-1.2575,-1.2587,-1.2603,-1.2593,-1.2609,-1.2616,-1.2616,-1.2685,-1.2642,-1.2682,-1.2751,-1.2766,-1.2783,-1.2921,-1.2888,-1.2933,-1.3015,-1.3067,-1.3084,-1.3098,-1.315,-1.3168,-1.2944,-1.2944,-1.2945,0,-1.2575,-1.2643,-1.2613,-1.2669,-1.2689,-1.2636,-1.2703,-1.2716,-1.2745,-1.276,-1.2723,-1.2808,-1.2816,-1.2906,-1.294,-1.2954,-1.2972,-1.2933,-1.3083,-1.3098,-1.3111,-1.316,-1.3179,-1.295,-1.2949,-1.2949,-1.2948,0,-1.2733,-1.2781,-1.2832,-1.286,-1.2885,-1.2947,-1.2927,-1.2956,-1.2933,-1.2927,-1.2998,-1.3006,-1.3043,-1.3062,-1.3041,-1.3149,-1.3129,-1.3088,-1.3024,-1.3138,-1.3183,-1.3202,-1.2958,-1.2956,-1.2954,-1.2953,0,0,-1.2925,-1.2934,-1.2954,-1.2966,-1.298,-1.3017,-1.3075,-1.311,-1.3137,-1.3157,-1.3207,-1.3265,-1.3228,-1.3247,-1.3226,-1.3271,-1.3382,-1.3225,-1.3225,-1.3256,-1.3504,-1.3536,-1.3558,-1.3359,-1.3362,-1.3365,-1.3503,0,-1.306,-1.3161,-1.3135,-1.3236,-1.328,-1.3229,-1.3281,-1.3295,-1.329,-1.3327,-1.3321,-1.3364,-1.331,-1.3321,-1.3363,-1.336,-1.3432,-1.3349,-1.3407,-1.3409,-1.3407,-1.3581,-1.3616,-1.3746,-1.352,-1.3523,-1.3525,0,-1.3231,-1.3258,-1.3363,-1.3369,-1.3387,-1.3433,-1.3464,-1.3499,-1.3515,-1.3508,-1.3528,-1.3499,-1.3557,-1.349,-1.3571,-1.3515,-1.3537,-1.3538,-1.3543,-1.355,-1.3476,-1.3596,-1.3787,-1.3808,-1.3552,-1.355,-1.3548,0,-1.3364,-1.3425,-1.3496,-1.3508,-1.3516,-1.3551,-1.3556,-1.3567,-1.359,-1.3616,-1.3631,-1.3664,-1.3683,-1.3709,-1.369,-1.3642,-1.3775,-1.3706,-1.3772,-1.3773,-1.3805,-1.3804,-1.4005,-1.3814,-1.3814,-1.3813,-1.3813,0,-1.3519,-1.3586,-1.3556,-1.36,-1.3673,-1.3643,-1.3717,-1.3716,-1.3726,-1.377,-1.3727,-1.3769,-1.3738,-1.3778,-1.3762,-1.3833,-1.3841,-1.3838,-1.3834,-1.3844,-1.3844,-1.386,-1.3851,-1.3818,-1.3817,-1.3816,-1.3815,0,-1.3681,-1.3663,-1.3738,-1.3739,-1.3741,-1.3795,-1.3796,-1.3838,-1.3828,-1.3884,-1.3895,-1.3881,-1.3925,-1.3907,-1.3953,-1.3943,-1.4034,-1.4016,-1.4029,-1.4026,-1.4094,-1.4089,-1.4315,-1.4343,-1.4131,-1.4133,-1.4135,0,-1.3783,-1.3833,-1.3839,-1.3865,-1.3873,-1.3915,-1.3938,-1.3909,-1.3935,-1.3955,-1.3994,-1.4034,-1.4065,-1.4137,-1.4132,-1.4167,-1.4152,-1.4228,-1.4157,-1.4166,-1.4156,-1.4155,-1.416,-1.4244,-1.4246,-1.4248,-1.425,0,-1.3966,-1.3954,-1.3989,-1.402,-1.4049,-1.4072,-1.4092,-1.4115,-1.4087,-1.4118,-1.4163,-1.4186,-1.4233,-1.4274,-1.4305,-1.4311,-1.4277,-1.4272,-1.4289,-1.4302,-1.4308,-1.4308,-1.4071,-1.4268,-1.4266,-1.4264,-1.4264,-1.4263,-1.4103,-1.4145,-1.4156,-1.4196,-1.4207,-1.4227,-1.4266,-1.4261,-1.4297,-1.4333,-1.4313,-1.4365,-1.4378,-1.4416,-1.4426,-1.4467,-1.4437,-1.4462,-1.4469,-1.4476,-1.4486,-1.4299,-1.4472,-1.4471,-1.4471,-1.447,-1.447,0,-1.4286,-1.429,-1.4327,-1.4356,-1.4387,-1.4349,-1.4369,-1.4398,-1.4444,-1.4459,-1.4489,-1.454,-1.4579,-1.4576,-1.4612,-1.4645,-1.463,-1.4656,-1.4655,-1.4657,-1.451,-1.4492,-1.4667,-1.4667,-1.4667,-1.4667,-1.4667,-1.4667,-1.4386,-1.4456,-1.4446,-1.4521,-1.4524,-1.4575,-1.4589,-1.4607,-1.4619,-1.4677,-1.4709,-1.4706,-1.4714,-1.4749,-1.4784,-1.4782,-1.4798,-1.483,-1.4823,-1.4686,-1.4667,-1.4649,-1.4632,-1.4833,-1.4834,-1.4967,-1.4968,-1.4969]},{"header":{"parameterUnit":"m.s-1","parameterCategory":1,"la1":30.2991,"la2":30.254,"lo1":-89.0895,"lo2":-89.0444,"dy":0.0017,"dx":0.0017,"nx":28,"ny":28,"refTime":"2023-08-31T03:00:00:Z","depth":0,"parameterNumber":3,"parameterNumberName":"V-component_of_WINDS"},"data":[0,0,0,0,0,0,0,0,0,0,0,0,0,0,0,0,0,0,0,0,0,0,0,0,0,0,0,0,0,0,0,0,0,0,0,0,0,0,0,0,0,0,0,0,0,0,0,0,0,0,0,0,0,0,0,0,0,0,-5.0253,-5.0253,0,-5.0322,-5.0323,-5.0324,-5.0243,-5.024,-5.0237,-5.0234,-5.0301,-5.0305,-5.031,0,0,0,0,0,0,0,0,0,0,0,0,0,-5.0045,-5.005,-5.0252,-5.0253,-5.0254,-5.0322,-5.0323,-5.0324,-5.0244,-5.024,-5.0236,-5.0233,-5.0299,-5.0305,-5.031,0,0,0,0,0,0,0,0,0,0,0,0,0,-5.0127,-5.0051,-5.0252,-5.0222,-5.022,-5.0322,-5.0323,-5.0324,-5.0244,-5.024,-5.0235,-5.0231,-5.0298,-5.0304,-5.0311,-5.0444,0,0,-5.0332,-5.0335,0,0,0,0,0,0,0,0,-5.0123,-5.0135,-5.0226,-5.0225,-5.0223,-5.0269,-5.0274,-5.0364,-5.0245,-5.0235,-5.0234,-5.0229,-5.0294,-5.0301,-5.0323,-5.0447,-5.045,-5.0333,-5.0337,-5.034,-5.0342,0,0,0,0,0,0,0,-5.0117,-5.0131,-5.028,-5.0227,-5.0225,-5.0204,-5.0211,-5.0291,-5.0289,-5.0236,-5.023,-5.024,-5.0292,-5.0317,-5.0324,-5.0451,-5.0333,-5.0339,-5.0343,-5.0346,-5.0685,-5.069,0,0,0,0,0,0,-5.0115,-5.0127,-5.0278,-5.0282,-5.0161,-5.0211,-5.0219,-5.0259,-5.0288,-5.0288,-5.0243,-5.0236,-5.0308,-5.0317,-5.0327,-5.0483,-5.034,-5.0346,-5.035,-5.068,-5.0686,-5.0691,0,0,0,0,0,0,-5.0111,-5.013,-5.0275,-5.0203,-5.022,-5.022,-5.0265,-5.0263,-5.0288,-5.0294,-5.0292,-5.027,-5.0304,-5.0317,-5.0415,-5.0484,-5.0349,-5.0356,-5.0674,-5.0682,-5.0689,-5.0798,0,0,0,0,0,0,-5.0106,-5.0129,-5.018,-5.0205,-5.0224,-5.0364,-5.027,-5.0267,-5.03,-5.0291,-5.0318,-5.0318,-5.0302,-5.0405,-5.0422,-5.0491,-5.0361,-5.0668,-5.0678,-5.0686,-5.0788,-5.0808,-5.0825,0,0,0,0,0,-5.0099,-5.0207,-5.0183,-5.0202,-5.0289,-5.0368,-5.0379,-5.0359,-5.0306,-5.0357,-5.0361,-5.0317,-5.0474,-5.0416,-5.0434,-5.0507,-5.0664,-5.0675,-5.0686,-5.078,-5.0804,-5.0824,0,0,0,0,0,0,-5.0189,-5.021,-5.0184,-5.0304,-5.0335,-5.0355,-5.0418,-5.0386,-5.0432,-5.0421,-5.0393,-5.04,-5.0504,-5.0515,-5.045,-5.0636,-5.056,-5.0575,-5.0625,-5.0648,-5.0666,-5.0661,-5.0367,0,0,0,0,0,-5.0224,-5.0288,-5.0302,-5.0407,-5.0424,-5.0419,-5.0453,-5.0435,-5.0465,-5.0478,-5.0489,-5.0519,-5.0574,-5.0612,-5.0664,-5.0789,-5.0793,-5.0847,-5.0866,-5.0881,-5.0894,-5.096,-5.0984,-5.0727,-5.0727,-5.0727,0,0,-5.0295,-5.0314,-5.0356,-5.0426,-5.0448,-5.0513,-5.043,-5.0504,-5.0552,-5.0488,-5.0582,-5.0591,-5.0623,-5.0735,-5.0785,-5.0747,-5.0966,-5.0895,-5.0907,-5.0912,-5.0974,-5.0998,-5.102,-5.0735,-5.0734,-5.0732,0,0,-5.0458,-5.048,-5.0569,-5.0593,-5.0628,-5.0624,-5.0645,-5.067,-5.0674,-5.0768,-5.0722,-5.0777,-5.0875,-5.0899,-5.0924,-5.1096,-5.1057,-5.1113,-5.121,-5.1274,-5.1295,-5.1312,-5.1373,-5.1395,-5.1126,-5.1127,-5.1127,0,-5.0541,-5.064,-5.0618,-5.0695,-5.0727,-5.0674,-5.0763,-5.0787,-5.0837,-5.0859,-5.0816,-5.0936,-5.0954,-5.1071,-5.1113,-5.1135,-5.1157,-5.111,-5.1294,-5.1311,-5.1328,-5.1385,-5.1408,-5.1133,-5.1133,-5.1132,-5.1131,0,-5.0741,-5.081,-5.0878,-5.0929,-5.0967,-5.105,-5.1039,-5.1081,-5.1059,-5.1059,-5.1155,-5.1174,-5.1229,-5.1255,-5.1234,-5.1369,-5.1344,-5.1298,-5.1221,-5.1359,-5.1412,-5.1434,-5.1143,-5.114,-5.1138,-5.1137,0,0,-5.0963,-5.1001,-5.1026,-5.1048,-5.1083,-5.1135,-5.1214,-5.1269,-5.1305,-5.1341,-5.1406,-5.1489,-5.1447,-5.1475,-5.1456,-5.1514,-5.1647,-5.146,-5.146,-5.1494,-5.1796,-5.183,-5.1856,-5.1622,-5.1626,-5.1629,-5.1793,0,-5.1126,-5.1266,-5.1249,-5.1382,-5.1445,-5.1395,-5.1464,-5.1492,-5.1494,-5.1546,-5.1546,-5.1606,-5.1546,-5.1563,-5.1617,-5.162,-5.1708,-5.1608,-5.1681,-5.1684,-5.1674,-5.1884,-5.192,-5.2074,-5.1814,-5.1817,-5.182,0,-5.1336,-5.138,-5.152,-5.1545,-5.157,-5.1633,-5.1681,-5.1732,-5.1762,-5.1759,-5.1791,-5.1762,-5.184,-5.1762,-5.1869,-5.1801,-5.183,-5.1836,-5.1841,-5.1847,-5.176,-5.1895,-5.2122,-5.2145,-5.1852,-5.185,-5.1847,0,-5.1483,-5.1578,-5.1674,-5.1694,-5.1725,-5.1771,-5.1785,-5.1811,-5.1844,-5.1886,-5.1907,-5.1957,-5.1984,-5.2022,-5.2007,-5.1952,-5.2116,-5.2037,-5.2114,-5.2115,-5.2151,-5.2149,-5.2386,-5.2171,-5.217,-5.217,-5.2169,0,-5.1667,-5.1754,-5.1741,-5.18,-5.1896,-5.1874,-5.1969,-5.1977,-5.2,-5.2058,-5.2018,-5.2073,-5.205,-5.2103,-5.2091,-5.218,-5.2193,-5.2192,-5.2187,-5.2195,-5.2195,-5.2213,-5.2202,-5.2176,-5.2175,-5.2173,-5.2172,0,-5.1848,-5.1843,-5.1944,-5.1965,-5.1972,-5.2042,-5.2059,-5.2114,-5.2112,-5.2186,-5.2202,-5.22,-5.226,-5.2249,-5.2315,-5.2307,-5.2419,-5.2402,-5.241,-5.2405,-5.2483,-5.2476,-5.274,-5.2773,-5.2537,-5.2539,-5.2541,0,-5.1966,-5.2032,-5.2061,-5.2098,-5.2116,-5.2176,-5.221,-5.2191,-5.2228,-5.2267,-5.2316,-5.2374,-5.2418,-5.2517,-5.252,-5.257,-5.2554,-5.2643,-5.2561,-5.2566,-5.2554,-5.255,-5.2556,-5.2659,-5.2661,-5.2664,-5.2665,0,-5.2175,-5.2169,-5.2221,-5.2273,-5.2315,-5.2355,-5.2389,-5.2421,-5.2405,-5.2448,-5.2511,-5.2545,-5.2614,-5.267,-5.2717,-5.273,-5.2695,-5.2691,-5.2712,-5.272,-5.2722,-5.2721,-5.2453,-5.2685,-5.2683,-5.2682,-5.2681,-5.268,-5.2327,-5.2384,-5.2413,-5.2472,-5.2497,-5.253,-5.2582,-5.2588,-5.264,-5.2695,-5.268,-5.275,-5.2776,-5.2836,-5.2854,-5.2908,-5.2874,-5.2904,-5.2912,-5.2919,-5.2929,-5.2714,-5.2916,-5.2916,-5.2915,-5.2915,-5.2914,0,-5.2534,-5.255,-5.2605,-5.2656,-5.2702,-5.2666,-5.2703,-5.2743,-5.2806,-5.2835,-5.288,-5.2951,-5.3006,-5.3013,-5.3065,-5.3106,-5.3091,-5.312,-5.3117,-5.312,-5.2956,-5.2933,-5.3131,-5.3131,-5.3131,-5.3131,-5.3131,-5.3131,-5.2647,-5.274,-5.2738,-5.2842,-5.2857,-5.2927,-5.2951,-5.2981,-5.3003,-5.3085,-5.3131,-5.3136,-5.3155,-5.3208,-5.3256,-5.3256,-5.3277,-5.3312,-5.3307,-5.3153,-5.3132,-5.3111,-5.3089,-5.3317,-5.3317,-5.3466,-5.3467,-5.3468]}]]